DW2973 Weather Reports


Display with metric or nautical units.
time (UTC)temp
F
wind
direction
speed
MPH
gust
MPH
rain 1hr
in
rain 24hr
in
rain mn
in
humidity
%
barometer
mb
20260507094552 56 325 0.0 0.0 0.00 0.00 0.00 64 1015.8
20260507093037 56 310 1.0 0.0 0.00 0.00 0.00 71 1015.7
20260507091536 55 360 1.0 0.0 0.00 0.00 0.00 70 1015.7
20260507090033 56 310 0.0 0.0 0.00 0.00 0.00 72 1015.7
20260507084538 55 18 0.0 0.0 0.00 0.00 0.00 72 1015.5
20260507083031 55 332 0.0 0.0 0.00 0.00 0.00 72 1015.4
20260507081531 54 318 0.0 0.0 0.00 0.00 0.00 75 1015.1
20260507080024 53 311 0.0 0.0 0.00 0.00 0.00 76 1015.0
20260507074522 52 307 0.0 0.0 0.00 0.00 0.00 79 1015.0
20260507073019 51 279 0.0 0.0 0.00 0.00 0.00 80 1014.9
20260507071519 51 315 0.0 0.0 0.00 0.00 0.00 81 1014.9
20260507070024 50 220 0.0 0.0 0.00 0.00 0.00 83 1014.7
20260507064515 50 218 0.0 0.0 0.00 0.00 0.00 86 1014.7
20260507063010 49 252 0.0 0.0 0.00 0.00 0.00 90 1014.6
20260507061506 47 252 0.0 0.0 0.00 0.00 0.00 92 1014.5
20260507060001 45 252 0.0 0.0 0.00 0.00 0.00 93 1014.4
20260507054558 44 252 0.0 0.0 0.00 0.00 0.00 93 1014.4
20260507053122 43 252 0.0 0.0 0.00 0.00 0.00 93 1014.4
20260507051555 42 196 0.0 0.0 0.00 0.00 0.00 92 1014.2
20260507050053 41 196 0.0 0.0 0.00 0.00 0.00 92 1014.2
20260507044603 41 196 0.0 0.0 0.00 0.00 0.00 92 1014.0
20260507043051 40 196 0.0 0.0 0.00 0.00 0.00 92 1014.0
20260507041553 40 196 0.0 0.0 0.00 0.00 0.00 92 1013.9
20260507040049 39 196 0.0 0.0 0.00 0.00 0.00 91 1013.9
20260507034548 39 196 0.0 0.0 0.00 0.00 0.00 91 1013.8
20260507033100 39 196 0.0 0.0 0.00 0.00 0.00 91 1013.7
20260507031557 39 196 0.0 0.0 0.00 0.00 0.00 91 1013.6
20260507024602 39 196 0.0 0.0 0.00 0.00 0.00 90 1013.4
20260507023042 39 196 0.0 0.0 0.00 0.00 0.00 90 1013.3
20260507021550 39 196 0.0 0.0 0.00 0.00 0.00 89 1013.2
20260507020053 39 196 0.0 0.0 0.00 0.00 0.00 89 1013.2
20260507014550 39 196 0.0 0.0 0.00 0.00 0.00 89 1013.2
20260507013042 39 196 0.0 0.0 0.00 0.00 0.00 88 1013.1
20260507011544 39 196 0.0 0.0 0.00 0.00 0.00 88 1013.1
20260507010041 40 196 0.0 0.0 0.00 0.00 0.00 87 1013.0
20260507004533 40 196 0.0 0.0 0.00 0.00 0.00 87 1013.0
20260507003030 41 196 0.0 0.0 0.00 0.00 0.00 87 1013.0
20260507001534 41 196 0.0 0.0 0.00 0.00 0.00 86 1013.0
20260507000028 41 196 0.0 0.0 0.00 0.00 0.00 86 1012.9
20260506234526 41 196 0.0 0.0 0.00 0.00 0.00 85 1012.8
20260506233025 42 196 0.0 0.0 0.00 0.00 0.00 85 1012.8
20260506231523 42 196 0.0 0.0 0.00 0.00 0.00 84 1012.8
20260506230023 42 196 0.0 0.0 0.00 0.00 0.00 84 1012.7
20260506224521 43 196 0.0 0.0 0.00 0.00 0.00 83 1012.7
20260506223020 43 196 0.0 0.0 0.00 0.00 0.00 83 1012.6
20260506221517 43 196 0.0 0.0 0.00 0.00 0.00 82 1012.5
20260506220015 43 196 0.0 0.0 0.00 0.00 0.00 81 1012.6
20260506214515 44 196 0.0 0.0 0.00 0.00 0.00 80 1012.5
20260506213014 44 196 0.0 0.0 0.00 0.00 0.00 80 1012.4
20260506211519 44 196 0.0 0.0 0.00 0.00 0.00 79 1012.4
20260506210016 45 196 0.0 0.0 0.00 0.00 0.00 77 1012.3
20260506204510 46 196 0.0 0.0 0.00 0.00 0.00 75 1012.1
20260506203009 47 196 0.0 0.0 0.00 0.00 0.00 74 1012.1
20260506201509 47 196 0.0 0.0 0.00 0.00 0.00 72 1011.9
20260506200006 48 190 0.0 0.0 0.00 0.00 0.00 70 1011.8
20260506194506 49 190 0.0 0.0 0.00 0.00 0.00 68 1011.7
20260506193005 49 190 0.0 0.0 0.00 0.00 0.00 65 1011.7
20260506191504 50 190 0.0 0.0 0.00 0.00 0.00 63 1011.6
20260506190001 51 254 0.0 0.0 0.00 0.00 0.00 59 1011.3
20260506184600 52 256 0.0 0.0 0.00 0.00 0.00 57 1011.2